Powrót do katalogu

SSTL S1-4

AktywnyNaukaSSO
NORAD 43618·PAYLOAD·🇬🇧 United Kingdom

Wystrzelony Sep 16, 2018 z Satish Dhawan Space Centre

Loading…

Następne Przeloty (najbliższe 24 godziny)

TLE

ŚwieżeSource: Space-Track

Epoka: Sep 14, 2026, 15:07 UTC

1 43618U 18071A   26257.63024068  .00000370  00000-0  36911-4 0  9994
2 43618  97.4867 125.4735 0002582 230.2758 129.8238 14.97018432436315

Śledź SSTL S1-4 w czasie rzeczywistym z AllMySat

Download on the App Store